Weather History for Muncie, IN

Change the Weather History Date:

Thursday, December 19, 2013

  Actual Average Record
Temperature  
Mean Temperature 41 °F 30 °F  
Max Temperature 47 °F 37 °F 56 °F (1967)
Min Temperature 35 °F 22 °F -9 °F (1983)
Degree Days  
Heating Degree Days 24 36  
Month to date heating degree days 699 622  
Since 1 July heating degree days 1950 1757  
Cooling Degree Days 0 0  
Month to date cooling degree days 0 0  
Year to date cooling degree days 973 956  
Moisture  
Dew Point 31 °F    
Average Humidity 59    
Maximum Humidity 71    
Minimum Humidity 47    
Precipitation  
Precipitation 0.00 in 0.09 in 2.27 in (2008)
Month to date precipitation 0.66 1.79  
Year to date precipitation 35.08 39.03  
Sea Level Pressure  
Sea Level Pressure 29.96 in    
Wind  
Wind Speed 12 mph (SSW)    
Max Wind Speed 21 mph    
Max Gust Speed 29 mph    
Visibility 10 miles    
Events      
T = Trace of Precipitation, MM = Missing Value Source: NWS Daily Summary

Daily Weather History Graph

Daily Weather History Graph

Search for Another Location

Airport:

Trip Planner

Search our weather history database for the weather conditions in past years. The results will help you decide how hot, cold, wet, or windy it might be!

Date:

Astronomy

Dec. 19, 2013 Rise Set
Actual Time 7:59 AM EST 5:18 PM EST
Civil Twilight 7:28 AM EST 5:48 PM EST
Nautical Twilight 6:54 AM EST 6:23 PM EST
Astronomical Twilight 6:21 AM EST 6:56 PM EST
Moon 7:43 PM EST (12/19) 9:17 AM EST (12/19)
Length of Visible Light 10h 19m
Length of Day
9h 18m
Waning Gibbous, 95% of the Moon is Illuminated
Dec 19
Waning Gibbous
Dec 25
Last Quarter
Jan 1
New
Jan 7
First Quarter
Jan 15
Full

Hourly Weather History & Observations

Time (EST) Temp. Windchill Dew Point Humidity Pressure Visibility Wind Dir Wind Speed Gust Speed Precip Events Conditions
12:53 AM 36.0 °F 26.3 °F 19.0 °F 50% 29.97 in 10.0 mi SW 16.1 mph 27.6 mph N/A   Clear
1:53 AM 37.0 °F 27.4 °F 19.9 °F 50% 29.96 in 10.0 mi SW 17.3 mph 26.5 mph N/A   Clear
2:53 AM 37.0 °F 28.1 °F 21.9 °F 54% 29.97 in 10.0 mi SW 15.0 mph 24.2 mph N/A   Clear
3:53 AM 37.9 °F 28.9 °F 23.0 °F 55% 29.97 in 10.0 mi SW 16.1 mph 23.0 mph N/A   Clear
4:53 AM 37.9 °F 30.0 °F 26.1 °F 62% 29.97 in 10.0 mi SW 12.7 mph 21.9 mph N/A   Clear
5:53 AM 39.0 °F 31.4 °F 27.0 °F 62% 29.97 in 10.0 mi SW 12.7 mph - N/A   Clear
6:53 AM 39.0 °F 31.0 °F 28.9 °F 67% 29.96 in 10.0 mi SSW 13.8 mph 21.9 mph N/A   Clear
7:53 AM 39.9 °F 32.5 °F 30.0 °F 68% 29.98 in 10.0 mi SSW 12.7 mph - N/A   Clear
8:53 AM 41.0 °F 33.5 °F 30.0 °F 65% 29.99 in 10.0 mi SW 13.8 mph 19.6 mph N/A   Clear
9:53 AM 42.1 °F 34.5 °F 30.9 °F 65% 30.00 in 10.0 mi SSW 15.0 mph - N/A   Clear
10:53 AM 43.0 °F 37.7 °F 30.9 °F 62% 30.01 in 10.0 mi SSW 9.2 mph - N/A   Clear
11:53 AM 43.0 °F 36.4 °F 32.0 °F 65% 30.01 in 10.0 mi SSW 12.7 mph - N/A   Clear
12:53 PM 43.0 °F 37.2 °F 32.0 °F 65% 29.99 in 10.0 mi SSW 10.4 mph - N/A   Partly Cloudy
1:53 PM 42.1 °F 35.7 °F 33.1 °F 70% 29.97 in 10.0 mi South 11.5 mph - N/A   Mostly Cloudy
2:53 PM 42.1 °F 35.2 °F 33.1 °F 70% 29.96 in 10.0 mi South 12.7 mph - N/A   Overcast
3:53 PM 42.1 °F 37.7 °F 33.1 °F 70% 29.96 in 10.0 mi SSW 6.9 mph - N/A   Overcast
4:53 PM 43.0 °F 37.7 °F 34.0 °F 71% 29.95 in 10.0 mi South 9.2 mph - N/A   Overcast
5:53 PM 44.1 °F 38.6 °F 35.1 °F 71% 29.94 in 10.0 mi South 10.4 mph - N/A   Overcast
6:44 PM 45.0 °F 39.3 °F 35.1 °F 68% 29.93 in 10.0 mi South 11.5 mph - N/A   Overcast
6:53 PM 45.0 °F 39.3 °F 36.0 °F 71% 29.94 in 10.0 mi South 11.5 mph - N/A   Overcast
7:53 PM 46.0 °F 41.0 °F 36.0 °F 68% 29.94 in 10.0 mi South 10.4 mph - N/A   Overcast
8:07 PM 46.0 °F 41.0 °F 36.0 °F 68% 29.93 in 10.0 mi South 10.4 mph - N/A   Overcast
8:53 PM 46.0 °F 40.6 °F 36.0 °F 68% 29.92 in 10.0 mi South 11.5 mph - N/A   Overcast
9:53 PM 45.0 °F 39.3 °F 36.0 °F 71% 29.91 in 10.0 mi South 11.5 mph - N/A   Mostly Cloudy
10:53 PM 46.0 °F 40.6 °F 37.9 °F 73% 29.89 in 10.0 mi SSW 11.5 mph 20.7 mph N/A   Overcast
11:53 PM 46.9 °F - 39.0 °F 74% 29.89 in 10.0 mi SSW 13.8 mph 19.6 mph N/A   Overcast